Terminal Aerodrome Forecast
Issued by NWS Duluth, MN

Home | Current Version | Previous Version | Graphics & Text | Print | Product List | Glossary On
Versions: 1 2 3 4 5 6 7 8 9 10 11 12 13 14 15 16 17 18 19 20 21 22 23 24 25 26 27 28
000
FTUS43 KDLH 201100
TAFINL
TAF
KINL 201120Z 2012/2112 00000KT 1/4SM FG VV001
      TEMPO 2012/2013 2SM BR OVC002
     FM201300 13003KT 4SM BR SCT012
     FM201400 13004KT P6SM SKC
     FM210900 12004KT 6SM BR BKN050 OVC120=

USA.gov is the U.S. government's official web portal to all federal, state and local government web resources and services.